Home > Weather > Caledon > Past weeks

Flag for Canada Past Weather in Caledon, Ontario, Canada — Yesterday and Last 2 Weeks

Now
54 °F

Clear.


Feels Like: 52 °F
Forecast: 52 / 76 °F
Wind: 7 mph from West

Location: Borden

Current Time: Jul 2, 2016 at 1:43:52 AM

Latest Report: Jul 2, 2016 at 1:00 AM


Visibility: 9 mi

Pressure: 29.99 "Hg

Humidity: 94%

Dew Point: 52 °F

Location of CaledonLocation

Past Weather in Caledon — Graph

°F

Caledon Temperature Yesterday

Maximum temperature yesterday: 63 °F (at 8:00 AM)
Minimum temperature yesterday: 54 °F (at 1:00 AM)
Average temperature yesterday: 59 °F

High & Low Weather Summary for the Past Weeks

 TemperatureHumidityPressure
High91 °F (Jun 19, 2:00 PM)100% (Jun 17, 4:00 AM)30.26 "Hg (Jun 17, 4:00 AM)
Low39 °F (Jun 30, 3:00 AM)25% (Jun 18, 12:00 PM)29.75 "Hg (Jun 20, 6:00 PM)
Average67 °F63%29.99 "Hg
* Reported Jun 17 12:00 AM — Jul 2 12:00 AM, Caledon, Weather by CustomWeather, © 2016

Note: Actual official high and low records may vary slightly from our data, if they occured in-between our weather recording intervals... More about our weather records

Advertising

Caledon Weather History for the Previous 24 Hours

Scroll right to see more
 ConditionsComfort  
Time TempWeatherWind HumidityBarometerVisibility
12:00 AM
Sat, Jul 2
54 °FClear.6 mph94%29.98 "Hg9 mi
11:00 PM
Fri, Jul 1
54 °FClear.5 mph94%29.97 "Hg9 mi
10:00 PM55 °FScattered clouds.3 mph94%29.97 "Hg9 mi
9:00 PM59 °FOvercast.8 mph88%29.95 "Hg9 mi
8:00 PM59 °FMostly cloudy.8 mph88%29.94 "Hg9 mi
7:00 PM59 °FOvercast.14 mph94%29.92 "Hg9 mi
6:00 PM61 °FLight rain. Overcast.7 mph94%29.88 "Hg9 mi
5:49 PM61 °FRain. Mostly cloudy.7 mph88%29.87 "Hg5 mi
5:00 PM63 °FOvercast.8 mph83%29.85 "Hg9 mi
4:04 PM63 °FPartly sunny.7 mph94%29.83 "Hg9 mi
3:56 PM63 °FScattered clouds.10 mph94%29.83 "Hg9 mi
3:00 PM63 °FLight rain. Mostly cloudy.6 mph88%29.81 "Hg9 mi
2:00 PM63 °FLight rain. Mostly cloudy.No wind94%29.81 "Hg6 mi
1:46 PM63 °FLight rain. Mostly cloudy.No wind88%29.80 "Hg8 mi
1:00 PM63 °FLight rain. Mostly cloudy.5 mph88%29.82 "Hg9 mi
12:52 PM63 °FLight rain. More clouds than sun.3 mph88%29.81 "Hg9 mi
12:00 PM63 °FMostly cloudy.5 mph88%29.83 "Hg9 mi
11:00 AM61 °FPartly sunny.5 mph94%29.84 "Hg9 mi
10:00 AM61 °FRain. Overcast.3 mph88%29.86 "Hg4 mi
9:59 AM61 °FRain. Overcast.3 mph88%29.86 "Hg4 mi
9:00 AM59 °FLight rain. Overcast.10 mph82%29.86 "Hg9 mi
8:00 AM63 °FPassing clouds.5 mph59%29.84 "Hg9 mi
7:00 AM61 °FScattered clouds.3 mph63%29.85 "Hg9 mi
6:00 AM57 °FOvercast.No wind72%29.86 "Hg9 mi
5:00 AM55 °FPassing clouds.6 mph72%29.87 "Hg9 mi
4:00 AM55 °FPassing clouds.5 mph72%29.88 "Hg9 mi
3:00 AM57 °FClear.6 mph72%29.89 "Hg9 mi
2:00 AM54 °FClear.No wind77%29.90 "Hg9 mi
1:00 AM54 °FPassing clouds.No wind77%29.92 "Hg9 mi
Weather by CustomWeather, © 2016

See weather overviewHow to use our weather pages